Location: Boulin
(43.2500°N, 0.1333°E)
Time: 00:58:49
(UTC+00:00)

Cosmos 2279 Rocket - Pass Details

Date: 11 December 2025
Orbit: 963 x 977 km, 82.9° (Epoch: 17 January)

Event Time Altitude Azimuth Distance (km) Brightness Sun altitude
Rises 17:00:54 0° 192° (SSW) 3,642 7.6 -6.7°
Reaches altitude 10° 17:03:23 10° 194° (SSW) 2,701 6.9 -7.2°
Maximum altitude 17:09:34 73° 279° (W) 1,018 4.3 -8.2°
Drops below altitude 10° 17:15:49 10° 4° (N) 2,729 6.1 -9.2°
Sets 17:18:22 0° 7° (N) 3,682 6.7 -9.6°
